Weather History for Rogers City, MI

Change the Weather History Date:

Saturday, March 15, 2014

  Actual Average (KAPN) Record (KAPN)
Temperature  
Mean Temperature 22 °F 28 °F  
Max Temperature 32 °F 38 °F 76 °F (1990)
Min Temperature 9 °F 19 °F -6 °F (1993)
Degree Days  
Heating Degree Days 44 37  
Month to date heating degree days 590  
Since 1 July heating degree days 6322  
Cooling Degree Days 0 0  
Month to date cooling degree days 0  
Year to date cooling degree days 0  
Moisture  
Dew Point 15 °F    
Average Humidity 79    
Maximum Humidity 99    
Minimum Humidity 62    
Precipitation  
Precipitation 0.00 in 0.06 in 0.76 in (1959)
Month to date precipitation 0.86  
Year to date precipitation 3.84  
Snow  
Snow 0.00 in 0.40 in 4.20 in (1943)
Month to date snowfall 7.0  
Since 1 July snowfall 73.1  
Snow Depth -    
Sea Level Pressure  
Sea Level Pressure 29.98 in    
Wind  
Wind Speed 13 mph (WNW)    
Max Wind Speed 21 mph    
Max Gust Speed 32 mph    
Visibility 6 miles    
Events Snow    
T = Trace of Precipitation, MM = Missing Value Source: NWS Daily Summary

Daily Weather History Graph

Daily Weather History Graph

Search for Another Location

Airport:

Trip Planner

Search our weather history database for the weather conditions in past years. The results will help you decide how hot, cold, wet, or windy it might be!

Date:

Astronomy

Mar. 15, 2014 Rise Set
Actual Time 7:47 AM EDT 7:41 PM EDT
Civil Twilight 7:18 AM EDT 8:10 PM EDT
Nautical Twilight 6:44 AM EDT 8:45 PM EDT
Astronomical Twilight 6:09 AM EDT 9:20 PM EDT
Moon 6:59 PM EDT (3/15) 7:00 AM EDT (3/15)
Length of Visible Light 12h 52m
Length of Day
11h 53m
Waxing Gibbous, 99% of the Moon is Illuminated
Mar 15
Waxing Gibbous
Mar 16
Full
Mar 23
Last Quarter
Mar 30
New
Apr 7
First Quarter

Hourly Weather History & Observations

Time (EDT) Temp. Windchill Dew Point Humidity Pressure Visibility Wind Dir Wind Speed Gust Speed Precip Events Conditions
12:14 AM 32.5 °F 25.5 °F 32.0 °F 98% 29.56 in 4.0 mi West 8.1 mph - N/A Snow Light Snow
12:35 AM 32.5 °F 24.2 °F 32.0 °F 98% 29.57 in 4.0 mi West 10.4 mph - N/A Snow Light Snow
12:54 AM 32.5 °F 24.8 °F 32.0 °F 98% 29.58 in 4.0 mi West 9.2 mph 16.1 mph N/A Snow Light Snow
1:14 AM 32.4 °F 25.3 °F 32.0 °F 99% 29.58 in 2.5 mi West 8.1 mph - N/A Snow Light Snow
1:35 AM 32.4 °F 25.3 °F 32.0 °F 99% 29.59 in 2.0 mi West 8.1 mph - N/A Snow Light Snow
1:54 AM 32.2 °F 22.7 °F 31.6 °F 98% 29.60 in 3.0 mi WNW 12.7 mph 18.4 mph N/A Snow Light Snow
2:15 AM 32.0 °F 24.2 °F 31.1 °F 96% 29.61 in 2.5 mi West 9.2 mph - N/A Snow Light Snow
2:35 AM 31.5 °F 22.3 °F 30.0 °F 94% 29.62 in 3.0 mi West 11.5 mph - N/A Snow Light Snow
2:54 AM 30.7 °F 22.0 °F 29.1 °F 94% 29.63 in 2.5 mi West 10.4 mph 23.0 mph N/A Snow Light Snow
3:15 AM 30.0 °F 19.1 °F 28.2 °F 93% 29.64 in 3.0 mi West 15.0 mph 23.0 mph N/A Snow Light Snow
3:34 AM 29.3 °F 19.1 °F 27.5 °F 93% 29.65 in 3.0 mi West 12.7 mph 21.9 mph N/A Snow Light Snow
3:55 AM 29.1 °F 17.9 °F 27.1 °F 92% 29.65 in 3.0 mi West 15.0 mph 19.6 mph N/A Snow Light Snow
4:14 AM 28.8 °F 19.5 °F 27.1 °F 94% 29.66 in 2.0 mi West 10.4 mph 20.7 mph N/A Snow Light Snow
4:35 AM 28.4 °F 16.2 °F 26.6 °F 93% 29.67 in 2.5 mi West 17.3 mph 20.7 mph N/A Snow Light Snow
4:55 AM 28.0 °F 15.3 °F 25.9 °F 92% 29.69 in 4.0 mi WNW 18.4 mph 27.6 mph N/A Snow Light Snow
5:14 AM 27.7 °F 15.2 °F 25.5 °F 92% 29.71 in 10.0 mi WNW 17.3 mph 24.2 mph N/A   Overcast
5:35 AM 27.1 °F 14.9 °F 24.6 °F 90% 29.72 in 7.0 mi WNW 16.1 mph 26.5 mph N/A Snow Light Snow
5:55 AM 26.4 °F 13.6 °F 23.9 °F 90% 29.74 in 10.0 mi WNW 17.3 mph 27.6 mph N/A   Overcast
6:14 AM 25.0 °F 12.2 °F 22.1 °F 89% 29.76 in 7.0 mi NW 16.1 mph 27.6 mph N/A   Overcast
6:35 AM 24.4 °F 9.9 °F 21.2 °F 87% 29.78 in 7.0 mi WNW 20.7 mph 25.3 mph N/A   Overcast
6:54 AM 23.5 °F 9.9 °F 19.9 °F 86% 29.80 in 7.0 mi NW 17.3 mph 32.2 mph N/A   Overcast
7:14 AM 22.8 °F 8.9 °F 19.0 °F 85% 29.82 in 10.0 mi WNW 17.3 mph 26.5 mph N/A   Overcast
7:35 AM 21.7 °F 9.0 °F 18.3 °F 87% 29.84 in 10.0 mi WNW 13.8 mph 21.9 mph N/A   Overcast
7:54 AM 21.0 °F 8.6 °F 17.2 °F 85% 29.86 in 10.0 mi WNW 12.7 mph 25.3 mph N/A   Overcast
8:15 AM 20.1 °F 7.5 °F 16.5 °F 86% 29.87 in 10.0 mi WNW 12.7 mph 21.9 mph N/A   Overcast
8:35 AM 19.4 °F 4.5 °F 15.1 °F 83% 29.89 in 10.0 mi WNW 17.3 mph 26.5 mph N/A   Overcast
8:54 AM 18.9 °F 5.3 °F 14.7 °F 84% 29.90 in 10.0 mi WNW 13.8 mph 23.0 mph N/A   Overcast
9:15 AM 18.5 °F 4.3 °F 14.2 °F 83% 29.92 in 10.0 mi WNW 15.0 mph 23.0 mph N/A   Overcast
9:34 AM 18.3 °F 4.1 °F 13.8 °F 83% 29.93 in 7.0 mi WNW 15.0 mph 21.9 mph N/A Snow Light Snow
9:55 AM 18.5 °F 2.4 °F 13.5 °F 81% 29.95 in 7.0 mi NW 19.6 mph 25.3 mph N/A Snow Light Snow
10:15 AM 18.5 °F 3.8 °F 13.5 °F 81% 29.96 in 4.0 mi WNW 16.1 mph 26.5 mph N/A Snow Light Snow
10:34 AM 18.1 °F 3.4 °F 12.7 °F 79% 29.97 in 2.5 mi NW 16.1 mph 25.3 mph N/A Snow Light Snow
10:55 AM 18.3 °F 3.6 °F 12.7 °F 79% 29.98 in 7.0 mi NW 16.1 mph 26.5 mph N/A Snow Light Snow
11:14 AM 18.3 °F 2.6 °F 12.2 °F 77% 30.00 in 4.0 mi NW 18.4 mph 25.3 mph N/A Snow Light Snow
11:34 AM 18.5 °F 3.3 °F 12.4 °F 77% 30.01 in 3.0 mi WNW 17.3 mph 25.3 mph N/A Snow Light Snow
11:55 AM 19.4 °F 5.5 °F 13.1 °F 76% 30.02 in 3.0 mi WNW 15.0 mph 25.3 mph N/A Snow Light Snow
12:14 PM 19.2 °F 4.3 °F 12.4 °F 75% 30.03 in 4.0 mi WNW 17.3 mph 28.8 mph N/A Snow Light Snow
12:35 PM 19.6 °F 4.7 °F 11.5 °F 71% 30.04 in 3.0 mi NW 17.3 mph 24.2 mph N/A Snow Light Snow
12:55 PM 19.2 °F 7.7 °F 10.6 °F 69% 30.05 in 7.0 mi NW 10.4 mph 27.6 mph N/A Snow Light Snow
1:14 PM 19.4 °F 5.0 °F 11.1 °F 70% 30.05 in 7.0 mi NW 16.1 mph 28.8 mph N/A   Overcast
1:35 PM 19.4 °F 5.0 °F 10.0 °F 67% 30.06 in 10.0 mi WNW 16.1 mph 26.5 mph N/A   Mostly Cloudy
1:55 PM 20.7 °F 7.6 °F 10.6 °F 65% 30.07 in 10.0 mi NW 13.8 mph 21.9 mph N/A   Overcast
2:14 PM 19.4 °F 6.6 °F 11.7 °F 72% 30.08 in 5.0 mi WNW 12.7 mph 20.7 mph N/A Snow Light Snow
2:35 PM 19.9 °F 6.2 °F 12.6 °F 73% 30.09 in 3.0 mi NW 15.0 mph 19.6 mph N/A Snow Light Snow
2:54 PM 20.1 °F 6.4 °F 11.5 °F 69% 30.10 in 7.0 mi NW 15.0 mph 23.0 mph N/A   Overcast
3:14 PM 19.8 °F 5.0 °F 12.7 °F 74% 30.10 in 2.0 mi WNW 17.3 mph 23.0 mph N/A Snow Light Snow
3:35 PM 20.1 °F 7.5 °F 12.4 °F 72% 30.11 in 5.0 mi NW 12.7 mph 24.2 mph N/A Snow Light Snow
3:54 PM 20.3 °F 8.3 °F 10.6 °F 66% 30.12 in 10.0 mi WNW 11.5 mph 18.4 mph N/A   Overcast
4:15 PM 19.9 °F 7.9 °F 10.9 °F 68% 30.13 in 7.0 mi NW 11.5 mph 20.7 mph N/A   Overcast
4:35 PM 20.1 °F 8.1 °F 11.5 °F 69% 30.13 in 5.0 mi NW 11.5 mph 24.2 mph N/A   Haze
4:54 PM 19.9 °F 7.9 °F 11.8 °F 71% 30.14 in 4.0 mi NW 11.5 mph 17.3 mph N/A Snow Light Snow
5:15 PM 19.2 °F 4.7 °F 11.3 °F 71% 30.15 in 2.0 mi NW 16.1 mph 25.3 mph N/A Snow Light Snow
5:35 PM 19.4 °F 5.5 °F 9.3 °F 65% 30.16 in 7.0 mi WNW 15.0 mph 24.2 mph N/A   Overcast
5:54 PM 19.4 °F 4.5 °F 8.6 °F 63% 30.17 in 10.0 mi WNW 17.3 mph 21.9 mph N/A   Overcast
6:15 PM 19.0 °F 5.0 °F 7.9 °F 62% 30.18 in 10.0 mi WNW 15.0 mph 25.3 mph N/A   Overcast
6:34 PM 18.5 °F 4.3 °F 9.5 °F 68% 30.20 in 5.0 mi WNW 15.0 mph 24.2 mph N/A Snow Light Snow
6:54 PM 17.6 °F 5.0 °F 8.2 °F 67% 30.21 in 7.0 mi WNW 11.5 mph 23.0 mph N/A   Overcast
7:15 PM 17.2 °F 6.0 °F 8.6 °F 69% 30.22 in 7.0 mi West 9.2 mph 23.0 mph N/A   Overcast
7:34 PM 17.1 °F 3.6 °F 7.9 °F 67% 30.24 in 7.0 mi NW 12.7 mph 21.9 mph N/A   Overcast
7:55 PM 16.7 °F 2.0 °F 7.5 °F 67% 30.25 in 7.0 mi NW 15.0 mph 19.6 mph N/A Snow Light Snow
8:15 PM 15.8 °F 1.4 °F 9.5 °F 76% 30.26 in 3.0 mi NW 13.8 mph 20.7 mph N/A Snow Light Snow
8:34 PM 15.6 °F 0.1 °F 7.5 °F 70% 30.27 in 10.0 mi NW 16.1 mph 24.2 mph N/A   Overcast
8:55 PM 14.9 °F -1.3 °F 5.7 °F 67% 30.28 in 10.0 mi NW 17.3 mph 26.5 mph N/A   Overcast
9:15 PM 14.5 °F -1.3 °F 4.6 °F 65% 30.30 in 10.0 mi NW 16.1 mph 25.3 mph N/A   Overcast
9:34 PM 14.0 °F -1.4 °F 5.0 °F 67% 30.30 in 10.0 mi NW 15.0 mph 21.9 mph N/A   Overcast
9:55 PM 13.6 °F -2.4 °F 4.5 °F 67% 30.31 in 10.0 mi NW 16.1 mph 23.0 mph N/A   Overcast
10:14 PM 12.9 °F -2.2 °F 3.6 °F 66% 30.32 in 10.0 mi NW 13.8 mph 26.5 mph N/A   Overcast
10:35 PM 12.6 °F -2.7 °F 4.3 °F 69% 30.33 in 10.0 mi NW 13.8 mph 21.9 mph N/A   Mostly Cloudy
10:55 PM 12.4 °F -3.5 °F 4.6 °F 71% 30.33 in 10.0 mi NW 15.0 mph 23.0 mph N/A   Overcast
11:14 PM 12.2 °F -3.1 °F 4.8 °F 72% 30.34 in 10.0 mi NW 13.8 mph 24.2 mph N/A   Overcast
11:35 PM 11.5 °F -1.9 °F 4.3 °F 73% 30.35 in 10.0 mi West 10.4 mph 19.6 mph N/A   Overcast
11:55 PM 9.5 °F -2.6 °F 4.1 °F 79% 30.35 in 10.0 mi West 8.1 mph - N/A   Overcast